Location: Newark
(44.6768°N, 22.5302°E)
Time: 14:29:58
(UTC+00:00)

Max Valier Satellite - Visible Passes

Search period start: 02 July 2022 00:00
Search period end: 12 July 2022 00:00
Orbit: 478 x 490 km, 97.2° (Epoch: 01 July)

Date Brightness Start Highest point End Pass type
(mag) Time Alt. Az. Time Alt. Az. Time Alt. Az.
02 Jul ? 19:02:30 10° SW 19:05:19 21° W 19:08:11 10° NW visible
05 Jul ? 19:23:44 10° WSW 19:25:25 13° W 19:27:06 10° WNW visible
06 Jul ? 18:57:43 10° SSW 19:00:42 24° W 19:03:43 10° NW visible
09 Jul ? 19:18:40 10° SW 19:20:42 14° W 19:22:45 10° WNW visible
10 Jul ? 18:52:52 10° SSW 18:55:59 27° W 18:59:08 10° NW visible
